GFSSW_700_spd_000.txt.gz
Wind_Speed
41 41 41 40 40 40 40 40 40 43 42 39 42 46 48 44 41 36 32 21 15 22 37 38 35 30 27 27 26 26 28 31 27 25 25 20 23 24 26 30 28 25 23 21 24
43 45 45 45 44 44 44 44 44 43 46 49 45 43 44 50 50 49 33 30 22 27 29 34 40 32 33 33 32 33 39 38 31 26 27 27 32 28 31 30 34 32 25 20 29
42 43 44 46 46 45 45 45 46 47 48 47 50 49 47 46 53 52 45 42 33 29 30 34 36 38 38 35 36 40 45 37 31 28 35 37 36 34 35 38 33 32 25 21 27
42 43 45 45 46 45 44 44 45 46 46 47 49 50 49 48 51 42 48 46 44 37 37 35 38 38 39 41 37 45 44 38 32 32 40 42 41 36 37 42 34 28 23 23 27
42 42 43 44 45 46 46 46 46 45 46 47 48 50 49 54 56 25 37 42 44 48 44 39 36 38 40 39 37 48 43 40 38 37 36 42 42 39 42 36 31 28 24 23 25
39 41 42 43 42 43 45 46 46 47 47 47 49 50 53 63 50 42 45 47 46 43 43 44 42 37 41 43 40 45 40 39 37 38 41 42 42 39 42 35 32 32 29 25 26
33 33 33 33 33 35 39 42 44 45 47 49 49 50 57 64 45 37 47 45 42 35 37 35 29 33 38 42 41 40 42 40 41 37 45 37 43 44 44 37 36 32 29 25 28
31 31 31 31 31 30 31 29 32 41 46 46 48 51 63 60 50 48 43 33 41 44 37 29 28 33 39 35 33 35 40 39 37 40 38 32 45 46 39 34 32 28 25 26 27
30 30 30 30 30 32 32 30 33 33 35 40 46 48 64 57 51 44 46 46 36 33 46 40 31 37 45 42 38 41 40 39 41 36 35 40 46 47 32 31 29 28 25 23 23
30 28 28 28 29 31 31 32 33 35 36 35 37 43 46 22 24 48 45 45 41 42 36 41 40 42 47 45 43 32 37 43 46 44 38 39 45 42 32 32 25 24 22 23 27
26 27 28 28 27 28 28 30 33 36 37 36 35 33 33 20 21 33 21 44 45 44 47 39 48 65 57 49 44 41 39 43 45 41 37 42 40 39 34 33 27 21 24 24 22
22 23 23 24 25 25 24 24 30 32 39 35 39 43 40 28 40 21 37 30 49 53 46 44 61 55 54 55 50 45 42 48 47 38 36 41 41 41 34 28 25 25 21 17 17
22 23 23 22 22 21 21 22 25 27 32 39 35 43 35 33 49 39 31 34 37 51 54 57 54 50 48 48 46 48 45 47 45 36 38 37 45 41 30 24 27 22 14 13 17
21 21 22 22 21 21 23 22 22 18 21 36 19 7 10 25 46 41 39 38 33 41 50 54 58 27 51 46 42 46 47 43 37 29 24 14 11 28 35 25 28 21 19 17 18
22 25 26 26 24 22 22 18 16 10 5 8 3 4 19 9 16 25 41 41 43 43 42 52 41 54 39 47 44 46 36 35 28 29 28 30 22 31 31 28 28 24 25 23 25
27 30 29 27 24 24 19 13 11 6 8 6 10 13 19 22 14 16 46 41 42 30 45 51 40 38 52 35 33 35 27 29 30 27 19 33 20 25 32 30 19 9 4 10 12
29 29 28 26 22 20 17 12 9 8 7 6 16 25 25 29 13 28 21 51 42 39 40 37 43 37 31 44 27 18 19 3 4 5 7 22 14 35 17 5 9 10 12 8 7
27 28 24 22 19 15 13 11 9 6 16 24 28 28 15 24 6 6 27 32 53 33 30 26 16 38 33 40 40 41 35 14 6 3 5 19 13 35 26 23 12 17 11 10 9
28 24 20 17 14 10 8 10 7 9 13 18 28 19 11 16 21 17 14 16 27 46 14 28 24 13 37 33 33 39 39 36 17 12 4 5 18 34 30 20 9 13 13 13 14
27 21 13 12 10 9 5 8 10 11 17 21 20 11 11 20 18 16 3 1 16 22 44 8 16 37 24 37 35 37 33 29 29 6 3 9 13 17 4 10 9 12 8 10 14
26 16 11 12 14 2 5 7 10 3 9 11 14 16 16 16 13 17 9 1 6 10 34 39 14 10 30 39 44 39 27 23 23 16 5 1 9 19 20 11 12 12 13 11 8
21 11 12 9 9 8 7 7 7 7 5 10 9 7 11 11 11 13 19 23 14 13 15 33 19 18 29 29 35 50 47 36 21 11 20 4 11 9 0 5 4 5 6 14 6
23 13 10 8 7 9 11 5 7 15 9 8 8 8 10 13 11 12 22 25 19 19 6 14 20 13 5 23 23 37 49 46 25 16 36 14 8 4 9 5 10 7 14 11 8
23 18 10 8 11 12 15 8 12 12 3 9 11 9 10 9 9 11 20 19 31 6 7 5 21 23 17 17 28 33 40 47 46 29 17 36 20 21 10 13 14 10 18 11 6
23 16 15 12 10 12 13 16 11 14 14 8 4 5 10 11 11 5 6 16 24 9 6 15 5 20 35 30 13 20 24 32 45 54 34 32 32 33 16 13 8 10 19 12 5
22 19 14 12 16 12 9 11 15 12 15 8 10 11 12 14 13 14 13 13 16 24 16 17 4 12 25 35 35 23 16 25 30 41 46 35 36 28 21 16 11 11 16 12 8
21 19 18 15 14 16 13 13 16 17 12 12 21 20 16 12 13 12 12 12 11 19 26 12 17 12 7 14 25 24 34 23 17 34 39 41 46 32 24 17 19 12 15 13 8

GFSSW_700_spd_003.txt.gz
Wind_Speed
38 38 38 38 39 40 41 41 41 41 40 41 43 45 44 44 41 42 36 27 22 24 20 22 26 24 25 29 30 27 28 30 32 28 21 21 23 24 22 25 25 27 28 25 19
39 39 39 40 39 40 42 42 44 45 45 45 44 45 47 47 45 47 41 41 33 31 28 29 39 35 38 41 39 38 39 37 32 30 33 31 28 31 30 29 32 31 31 30 24
40 41 41 41 41 41 41 41 43 44 46 48 49 49 49 49 50 48 44 45 44 39 33 30 33 33 39 42 49 45 51 37 35 35 37 32 32 35 34 34 30 36 38 32 27
41 42 43 44 45 45 44 44 44 44 44 45 47 50 51 50 47 46 47 46 47 47 41 39 37 39 46 47 46 48 49 40 37 37 38 34 37 39 33 36 33 32 34 30 24
39 41 41 42 44 45 45 45 44 45 46 47 46 47 47 51 57 44 39 38 38 47 49 43 44 40 43 44 40 51 50 45 41 39 38 37 40 41 37 35 35 33 33 28 25
35 35 36 36 37 38 40 42 44 45 46 46 48 49 49 57 48 44 45 42 31 33 40 43 46 47 40 43 43 45 46 44 41 41 37 40 42 42 41 36 34 37 30 25 27
32 33 33 33 33 32 31 29 30 35 39 41 43 46 55 56 42 38 38 44 41 34 32 32 37 39 45 46 43 47 45 34 37 40 38 37 51 48 40 33 33 35 28 20 19
30 31 31 32 31 31 30 30 31 33 34 35 37 43 58 51 47 44 40 35 39 45 35 28 29 38 40 36 37 40 46 38 32 39 38 31 60 44 33 35 34 35 28 22 18
28 28 27 27 27 28 28 29 32 34 35 34 36 40 53 50 46 43 44 43 39 32 44 34 29 34 42 40 31 35 32 30 28 33 29 35 47 41 35 40 35 37 29 22 17
21 23 24 25 25 24 23 26 28 31 31 32 37 39 38 36 21 22 44 47 43 44 32 44 43 40 40 43 46 33 31 28 31 26 31 41 52 45 40 40 36 37 31 22 21
20 20 20 21 23 24 25 25 24 30 28 26 30 35 33 30 25 29 25 33 44 47 53 45 43 62 62 50 45 35 31 38 37 39 36 42 44 41 42 40 37 38 31 22 23
23 23 23 23 23 23 24 25 26 28 32 24 26 34 31 30 43 23 34 31 33 56 53 44 64 57 47 49 51 45 38 34 32 36 29 36 43 45 40 40 38 39 29 17 18
23 22 22 22 24 22 23 24 26 25 31 30 27 25 22 26 36 32 32 37 35 45 59 66 68 52 49 47 48 44 40 38 34 30 24 27 36 36 39 34 30 30 22 16 12
24 25 25 26 25 24 26 24 22 21 18 26 3 0 10 16 19 19 40 37 34 36 49 55 53 35 47 45 40 42 46 36 31 23 25 14 21 28 31 37 35 30 27 18 14
26 27 28 27 26 23 23 19 16 12 5 5 3 5 12 21 20 9 21 42 36 25 37 52 42 43 36 42 47 38 22 26 27 28 26 26 20 26 25 37 31 20 24 21 23
27 28 29 26 23 23 18 14 9 4 8 3 8 12 12 15 21 17 17 26 39 26 31 36 23 36 56 34 33 20 15 12 13 14 17 24 18 29 38 28 20 8 14 16 14
28 29 27 25 21 18 14 10 5 8 3 4 8 18 19 18 22 14 8 19 35 30 31 27 27 34 33 31 26 25 17 7 8 9 10 22 19 36 29 18 1 8 6 8 11
29 26 26 21 18 14 10 7 8 6 10 19 22 25 19 17 17 13 17 17 27 24 22 27 22 34 29 34 27 33 32 13 7 5 11 4 12 20 18 10 7 3 4 6 12
27 25 19 15 15 11 6 8 6 7 10 14 19 13 7 9 14 13 14 9 18 34 12 25 24 26 32 28 31 27 37 24 11 8 10 4 11 22 17 13 10 5 4 9 10
26 21 14 15 18 7 3 5 6 7 16 17 12 9 15 13 13 13 15 7 14 25 21 15 19 28 33 32 35 34 27 18 18 8 8 11 12 14 11 5 7 6 4 12 10
22 18 14 11 16 4 9 7 10 5 12 10 11 12 13 12 9 11 11 18 7 14 26 29 8 21 25 40 39 30 28 18 20 14 6 4 7 20 12 7 6 5 2 7 14
20 16 15 13 9 11 11 10 5 9 8 12 10 9 9 11 11 9 11 17 24 10 19 25 15 13 44 29 31 36 35 33 20 12 21 5 9 3 1 1 7 5 5 14 14
24 15 14 10 12 16 11 4 8 13 8 5 8 10 14 15 8 4 11 23 18 17 4 18 17 19 12 12 31 36 32 32 19 15 24 13 8 9 6 8 0 3 6 18 8
24 17 15 10 16 12 16 10 11 8 6 13 13 7 11 11 9 9 17 9 11 14 9 12 22 20 16 24 15 40 35 29 26 18 16 33 18 14 7 3 11 6 21 14 2
24 18 17 13 13 16 15 11 13 14 8 11 7 10 15 12 15 5 11 5 15 2 9 3 12 23 26 11 10 25 31 35 34 33 19 12 26 20 9 7 9 14 24 12 3
22 22 21 13 13 14 13 12 12 16 18 14 11 17 17 18 14 18 15 12 14 23 16 4 5 15 31 18 8 12 15 27 36 42 36 22 25 25 16 14 8 17 24 11 7
20 21 21 19 15 16 17 20 21 21 14 18 19 22 16 11 11 12 14 7 10 11 15 5 1 9 14 15 12 8 12 10 13 24 31 34 30 21 24 17 10 8 21 12 9

GFSSW_700_spd_006.txt.gz
Wind_Speed
34 35 36 38 40 41 41 42 42 43 42 40 39 39 41 43 43 42 40 32 30 27 22 20 24 25 26 25 24 21 21 25 25 24 24 18 16 16 22 23 21 17 23 23 30
34 35 37 38 39 40 42 43 44 45 45 45 44 43 41 41 45 48 45 38 36 35 30 25 24 29 29 28 27 26 27 33 30 28 30 26 25 23 23 23 25 24 23 21 25
37 38 38 39 40 40 41 41 42 44 46 47 47 47 46 45 44 48 50 46 42 41 36 35 33 34 35 31 30 31 47 39 37 33 31 33 32 27 30 29 26 25 27 27 28
38 39 40 41 42 42 42 43 43 44 44 46 48 48 46 45 39 42 47 48 50 45 41 42 44 44 39 39 36 43 45 38 39 41 34 34 33 33 35 37 31 30 27 32 29
33 34 35 36 38 38 38 40 42 43 45 46 47 48 47 46 51 46 45 42 43 45 47 45 47 49 48 37 36 47 42 37 38 36 37 34 37 39 42 41 32 34 34 32 33
30 30 31 32 33 34 34 35 34 37 40 41 43 45 48 52 49 44 43 43 40 31 37 41 45 49 43 41 41 41 41 42 40 37 35 35 39 38 43 42 37 35 35 30 29
26 26 27 28 29 30 31 32 33 34 33 32 35 38 48 51 41 40 38 40 42 42 33 32 39 44 50 39 40 41 40 42 35 34 39 32 51 45 45 43 41 36 31 30 31
22 22 22 21 21 22 24 26 30 32 33 33 34 37 52 43 41 41 43 38 33 45 41 37 34 41 44 30 33 34 41 49 42 34 30 33 62 43 32 33 35 29 31 32 33
25 25 26 26 24 21 18 19 22 23 25 28 31 33 44 38 34 35 42 43 40 35 45 36 32 36 34 37 33 40 47 46 44 42 39 37 59 45 34 31 28 33 38 39 39
19 20 20 20 21 23 24 25 24 22 19 21 25 25 24 24 23 19 22 38 42 43 37 49 39 32 37 41 54 42 37 40 45 37 37 38 47 39 36 39 38 36 40 44 42
22 22 23 23 24 25 23 22 23 25 21 21 20 27 25 27 30 18 22 24 37 47 51 44 44 52 64 46 42 38 36 42 37 35 37 38 43 45 41 39 39 36 35 39 42
24 24 24 24 24 24 23 21 23 26 30 26 26 30 28 27 33 26 34 28 24 44 41 38 50 70 42 41 38 37 40 42 38 35 32 35 39 39 37 39 40 40 38 36 37
23 23 23 22 23 23 22 22 21 24 29 27 25 23 8 13 19 24 29 32 28 28 44 58 71 41 42 42 43 43 42 39 36 31 28 30 38 38 38 39 38 36 33 36 32
23 23 23 23 24 22 23 20 18 17 14 16 4 6 3 7 5 2 18 30 27 37 33 50 53 36 45 47 45 46 36 32 30 28 33 25 32 34 31 34 33 33 30 29 27
25 25 26 25 23 21 20 18 13 7 6 1 4 9 4 5 9 4 8 15 36 31 26 55 40 53 45 56 41 42 26 28 27 28 28 31 26 39 31 34 31 26 27 27 24
26 26 25 25 22 19 15 11 6 5 8 3 4 5 9 7 10 9 8 16 18 34 34 39 29 36 55 35 39 32 23 22 21 22 22 29 31 37 32 32 25 18 15 14 18
26 24 23 21 16 16 12 7 5 10 3 4 6 12 16 15 14 13 11 11 17 23 41 34 42 28 30 42 34 36 31 14 14 15 14 20 17 32 23 21 21 12 7 6 13
25 22 20 18 17 16 11 2 6 7 9 16 18 20 22 17 13 13 14 17 22 29 33 35 30 41 36 49 42 47 40 21 15 12 14 10 11 17 16 18 10 12 9 8 16
21 22 18 17 20 14 6 6 6 7 7 13 17 16 11 7 11 13 9 15 14 24 30 30 39 35 30 41 41 42 41 35 19 6 8 11 14 22 17 16 13 9 5 10 18
23 20 16 15 17 12 8 7 7 8 12 14 15 8 12 13 11 9 7 11 12 8 30 17 22 30 40 34 39 40 38 31 25 14 15 9 14 17 13 5 15 11 7 15 16
21 15 17 14 11 13 8 9 12 8 11 10 12 15 15 10 7 9 7 13 16 6 26 19 10 33 38 39 43 37 41 32 27 16 8 4 5 11 12 7 6 6 5 18 14
21 9 19 14 9 12 9 12 12 10 13 13 11 10 10 12 14 10 8 10 12 8 21 17 11 20 37 38 36 39 31 37 26 20 24 12 12 5 4 3 7 10 12 12 18
22 15 17 11 10 14 17 14 14 14 14 11 11 10 15 14 9 6 8 9 5 3 11 16 16 15 26 33 31 41 37 34 25 18 22 17 6 6 4 9 10 9 15 19 15
23 11 14 11 15 17 17 10 11 13 15 9 17 10 14 14 8 10 12 10 5 7 3 20 20 20 10 38 28 36 38 36 31 23 22 28 15 10 7 5 12 7 21 20 10
20 13 17 11 13 14 13 14 16 14 10 14 12 8 15 17 18 8 17 13 11 13 8 15 31 27 12 5 12 36 36 33 35 31 24 18 24 19 10 5 7 6 25 15 11
20 21 18 14 14 15 12 12 17 21 23 12 12 16 18 17 16 21 15 11 8 13 7 8 28 25 21 10 7 19 36 34 35 31 23 17 16 12 10 5 7 8 24 15 10
22 21 22 17 16 12 11 16 23 19 15 12 14 16 14 11 14 15 15 13 13 8 9 7 5 25 24 14 8 15 29 31 32 29 26 27 20 15 8 11 5 8 25 18 10

GFSSW_700_spd_009.txt.gz
Wind_Speed
35 36 37 38 38 39 39 41 42 43 43 44 42 40 38 37 39 44 44 39 35 30 26 22 21 22 25 26 23 18 25 30 28 26 26 21 22 20 17 17 17 19 22 22 23
35 36 37 38 39 41 43 44 45 45 46 47 47 46 43 42 40 44 43 46 42 38 33 26 25 24 26 26 26 27 32 33 28 26 26 25 26 25 26 24 24 26 23 22 20
37 37 38 39 40 41 42 44 46 47 47 48 49 49 48 47 45 42 44 45 48 45 39 33 29 29 29 27 29 32 41 33 32 30 31 36 35 32 35 35 29 29 26 24 25
35 36 37 38 39 41 43 45 46 47 48 49 48 48 48 47 35 36 43 47 46 48 44 42 39 35 35 35 32 37 40 38 39 38 39 43 42 41 40 37 31 31 29 26 26
33 34 36 37 37 38 39 40 41 44 46 47 49 49 48 48 50 45 39 39 40 42 43 45 45 42 45 40 37 46 46 44 46 45 44 41 45 44 43 36 35 33 33 30 29
26 28 29 30 32 34 35 35 36 38 38 39 41 43 46 51 44 44 49 44 43 39 33 33 47 41 45 46 46 48 48 48 47 47 44 45 48 42 39 37 39 35 37 35 31
21 21 21 21 22 23 25 27 30 31 32 34 35 36 44 48 41 43 40 42 45 49 44 33 33 32 40 47 45 48 52 54 53 46 45 39 48 51 43 39 41 39 38 34 30
26 24 22 21 20 19 19 20 22 22 24 27 29 32 47 38 35 42 41 43 39 43 44 41 22 34 39 32 37 45 46 52 55 49 46 42 56 45 38 38 38 31 32 37 32
25 25 26 26 27 26 24 22 21 20 19 20 22 26 32 25 22 30 39 42 40 39 38 40 43 34 29 38 38 41 50 55 48 42 44 45 54 47 37 37 39 40 37 32 32
26 26 26 26 26 26 25 25 26 25 23 17 16 17 11 14 10 17 15 25 36 38 36 41 40 33 36 41 52 51 48 47 50 44 40 44 50 46 40 36 37 36 38 39 39
23 24 26 27 28 28 27 23 16 20 12 12 15 22 17 17 20 22 18 18 15 25 38 33 37 47 64 50 47 44 37 42 45 40 34 38 42 46 37 37 37 40 41 40 40
23 22 22 22 22 22 21 17 17 22 32 27 31 31 30 26 30 28 19 22 21 25 30 38 53 69 38 41 41 43 43 46 42 36 33 35 37 36 37 40 40 42 39 37 38
26 26 24 22 23 23 19 18 18 19 24 29 24 24 23 19 23 22 21 26 30 27 33 46 65 37 46 41 42 45 44 43 41 32 30 29 41 41 38 40 37 38 38 38 37
27 27 25 23 19 20 13 19 15 14 15 25 8 6 9 6 13 12 15 21 29 37 31 40 47 46 43 50 48 48 42 37 31 29 32 29 33 37 34 35 34 33 32 32 29
28 25 22 22 20 13 13 13 10 6 6 3 5 5 8 9 10 5 7 13 24 29 31 49 41 51 52 54 42 54 34 33 31 33 32 32 29 33 29 32 32 31 29 29 28
27 24 21 22 21 17 14 11 6 5 9 1 3 3 6 9 12 12 11 11 13 22 34 43 37 37 55 47 39 36 34 32 29 30 27 31 31 43 31 29 25 21 18 20 20
25 22 21 18 13 18 13 8 6 10 3 5 7 10 13 14 17 17 18 17 18 17 30 40 41 38 35 48 45 38 34 22 21 23 21 26 27 36 24 20 22 22 15 8 10
23 21 19 16 15 21 11 5 8 10 11 14 17 17 19 20 21 19 18 21 21 24 30 34 38 44 43 42 56 46 47 27 26 11 18 29 23 27 17 15 14 11 12 9 11
22 21 21 20 16 17 13 7 9 16 13 15 18 18 16 9 9 13 19 22 14 12 12 31 39 35 44 36 40 55 50 51 28 29 15 21 15 16 16 13 13 10 11 13 13
22 11 13 23 14 16 10 10 14 13 14 17 20 10 15 17 14 14 16 13 13 15 25 19 34 39 35 40 39 54 48 42 43 23 14 17 11 16 6 8 8 14 11 14 14
19 7 16 18 12 12 9 12 14 14 14 15 18 20 18 13 14 13 10 11 14 14 17 20 18 26 43 50 45 54 46 48 38 30 14 12 15 4 7 10 6 13 13 13 16
15 5 17 14 13 12 12 17 18 15 16 18 16 14 15 18 17 19 11 8 13 15 16 18 9 18 31 41 42 48 45 50 31 29 30 16 9 6 3 6 8 4 12 16 19
12 10 19 14 9 13 14 17 13 12 14 18 13 18 19 17 12 8 8 12 12 13 5 13 19 15 16 30 41 49 48 41 43 28 30 13 3 8 5 7 8 10 13 17 18
12 10 9 11 14 16 17 13 14 14 14 10 19 16 13 17 13 10 16 10 7 10 10 17 21 22 9 23 40 44 51 44 43 31 26 29 16 11 11 7 6 12 16 20 20
12 10 14 11 15 15 16 18 18 20 17 13 11 12 16 20 18 14 16 20 18 14 10 17 33 30 16 13 37 37 43 36 45 33 27 21 20 16 13 5 2 10 19 20 17
19 18 17 14 15 14 15 15 16 20 20 11 12 15 15 17 18 18 16 15 11 12 16 10 34 32 23 19 16 42 41 41 35 34 22 14 19 19 10 3 7 10 18 17 18
23 22 23 16 15 17 14 19 22 21 13 17 17 18 15 14 19 20 19 19 19 20 19 13 11 16 25 20 17 23 44 39 36 35 27 19 11 12 9 7 3 13 14 14 16

GFSSW_700_spd_015.txt.gz
Wind_Speed
34 35 36 37 37 38 39 40 41 41 42 42 43 44 44 45 42 42 44 30 33 32 33 29 25 19 20 21 23 24 32 32 30 31 33 21 20 14 18 15 20 16 12 12 17
33 34 36 37 38 38 39 41 41 42 44 44 43 43 44 45 45 48 38 37 35 33 34 32 29 24 25 26 25 28 43 50 46 35 25 19 23 27 21 25 27 19 35 29 17
29 30 32 33 34 35 38 40 42 44 45 46 45 44 45 47 46 47 45 42 40 36 33 33 30 28 26 27 29 31 46 42 37 33 24 27 30 32 32 31 26 25 30 33 28
21 21 23 25 27 29 32 34 37 40 43 45 46 46 47 47 40 36 38 41 42 40 39 39 37 37 39 37 34 34 40 37 36 33 30 32 28 35 37 35 33 34 31 32 35
21 21 21 21 22 23 24 25 27 30 34 39 42 44 45 51 52 42 38 28 26 30 35 39 40 38 43 42 33 43 42 36 34 32 31 28 32 34 39 36 36 41 43 38 38
22 22 23 24 24 24 24 24 24 25 26 27 30 36 44 53 44 37 38 40 38 31 32 31 36 34 42 44 43 44 38 37 35 35 34 38 39 39 42 41 45 46 46 40 43
25 26 26 26 27 27 27 26 26 25 25 25 26 28 39 41 35 36 34 40 46 44 37 32 22 16 26 34 44 45 44 41 46 46 45 38 50 54 46 43 47 43 46 46 44
24 26 27 29 29 29 28 27 27 29 28 27 26 29 43 23 26 29 35 37 36 34 40 39 34 35 33 29 31 33 39 46 53 47 47 36 69 52 46 49 52 51 48 45 47
26 27 28 30 30 31 31 28 25 24 24 27 26 31 36 15 14 14 25 34 39 38 32 35 36 39 37 33 29 35 39 46 57 51 44 30 59 48 48 50 51 49 44 41 46
28 31 32 32 33 34 32 28 25 24 24 25 23 26 12 2 2 4 5 7 11 19 34 31 25 38 41 39 42 38 36 48 56 34 29 38 53 47 43 47 46 46 46 44 44
24 23 23 24 25 26 24 24 24 23 12 20 18 26 11 11 12 10 11 11 8 7 15 23 31 48 65 58 51 40 33 41 40 37 38 49 45 43 43 42 41 40 40 37 35
21 24 25 27 27 27 26 24 16 25 38 25 31 37 35 23 25 22 21 20 18 18 14 17 44 51 43 37 42 44 44 43 33 28 32 38 37 37 39 40 37 35 37 41 42
24 26 27 27 28 27 23 13 21 25 32 20 13 19 25 27 28 23 18 21 26 25 21 27 31 28 36 35 35 42 46 41 38 29 36 36 42 39 42 43 40 40 38 38 38
25 27 29 28 29 27 21 26 31 24 20 15 16 15 16 5 24 13 21 23 24 25 23 29 33 31 29 40 35 42 34 33 34 30 34 26 29 41 40 39 33 29 33 34 34
24 26 28 30 31 29 28 28 22 15 5 20 15 10 5 9 7 3 5 21 25 25 22 40 17 23 32 31 30 46 28 33 28 35 38 39 28 43 28 35 32 35 29 31 35
25 25 23 25 28 27 27 24 18 7 3 20 22 21 16 13 13 11 11 10 13 17 24 33 29 28 29 26 28 32 28 33 34 35 20 39 35 46 39 34 37 31 27 28 22
23 24 19 18 24 28 26 20 9 6 14 16 25 21 18 16 9 11 13 13 12 13 22 22 23 25 29 32 28 26 33 12 14 14 16 31 27 41 41 36 32 25 21 20 21
25 25 17 18 22 26 28 15 4 16 20 23 25 21 15 24 17 13 12 12 15 22 23 23 17 20 16 31 29 29 31 17 13 8 19 30 13 29 23 24 29 23 21 21 15
26 27 17 22 26 22 23 12 8 19 21 24 24 22 17 22 24 19 19 13 13 10 9 11 14 19 17 16 29 34 38 42 33 25 17 17 29 37 33 24 19 20 24 19 17
26 22 13 19 32 18 19 16 22 25 25 21 20 15 22 21 16 16 15 9 9 4 7 11 20 27 26 17 26 37 35 19 34 12 12 10 28 25 20 20 14 13 21 20 19
25 14 18 23 28 19 20 19 26 27 18 17 23 18 17 15 21 22 7 17 17 15 12 11 14 37 28 22 20 22 40 35 23 30 9 7 17 29 20 16 17 15 20 22 16
19 11 18 17 18 20 26 24 23 27 22 16 21 17 17 22 23 19 17 14 15 17 12 15 16 19 22 30 25 27 27 38 22 28 26 23 21 9 6 10 17 16 20 21 15
18 14 19 18 19 24 24 22 17 21 24 20 22 24 23 23 16 16 20 14 13 14 13 10 6 10 10 19 24 24 25 37 29 25 38 17 26 24 9 11 12 9 29 21 13
22 13 16 17 14 18 21 23 24 21 22 20 19 22 22 19 19 21 14 13 14 14 11 12 12 14 15 11 15 16 14 24 37 31 32 32 41 30 16 17 17 17 19 14 11
23 15 19 24 14 16 18 19 24 27 23 25 19 19 23 23 22 22 20 17 16 14 14 9 9 15 19 25 20 27 23 18 22 31 38 34 27 22 18 21 17 19 15 14 16
25 27 27 22 18 19 24 26 22 26 33 20 29 31 24 20 19 28 23 27 21 19 19 12 13 20 24 12 12 30 27 25 25 30 31 42 33 18 12 21 25 18 16 18 17
22 21 20 23 25 22 24 26 31 27 21 22 30 19 26 18 27 34 29 31 27 21 23 23 23 16 10 9 4 17 31 26 28 29 34 35 32 21 34 27 27 21 16 20 15

GFSSW_700_spd_021.txt.gz
Wind_Speed
30 31 31 31 30 30 32 33 34 35 36 37 38 39 39 39 39 40 40 33 33 33 35 32 30 30 29 28 26 27 31 35 31 25 24 13 22 29 18 17 13 5 2 8 9
23 23 24 25 26 26 26 27 30 32 34 36 38 40 41 42 41 41 34 36 37 38 40 38 34 32 35 34 31 34 39 39 30 31 22 18 25 28 35 41 35 32 23 14 15
14 15 17 18 20 21 23 25 25 26 28 32 35 38 41 42 43 41 40 35 37 42 42 41 37 34 39 39 39 41 47 37 36 36 34 30 30 31 31 38 40 35 35 33 25
10 11 12 14 15 16 18 21 23 26 26 27 30 33 37 40 28 22 26 29 33 41 43 42 42 43 47 47 45 47 48 44 39 36 36 36 36 39 39 41 32 44 45 41 40
11 12 13 14 15 16 19 21 23 26 27 28 29 31 33 37 31 25 29 26 24 31 42 44 45 46 50 49 45 49 50 48 44 40 38 35 38 38 42 35 36 37 42 46 43
11 12 13 15 16 17 20 22 23 23 26 29 33 35 37 41 25 26 32 34 35 32 34 43 46 47 49 50 48 50 49 49 47 43 40 41 43 39 42 34 38 42 41 41 42
13 14 15 17 18 21 23 25 26 26 28 29 32 35 40 33 30 30 28 29 35 39 38 39 42 40 50 48 49 48 50 46 49 45 44 40 51 54 43 35 42 48 49 48 46
13 14 16 17 20 22 24 25 26 28 29 30 29 32 40 24 18 18 30 30 27 40 39 37 39 47 41 44 43 43 47 50 52 44 43 33 69 56 46 41 42 46 48 47 49
12 14 16 18 20 22 25 25 24 26 29 30 30 30 26 10 5 7 12 14 27 34 44 32 34 39 43 39 31 31 43 50 44 44 36 45 70 53 47 46 48 47 46 47 49
13 15 17 18 20 21 25 26 22 25 28 32 22 32 27 20 15 18 9 5 11 27 33 41 37 39 43 40 39 39 46 26 18 27 23 36 58 50 47 49 53 52 52 53 52
14 16 19 20 22 24 27 28 29 28 18 23 21 18 19 15 17 22 13 10 8 27 34 35 40 50 50 47 41 24 19 23 21 18 25 42 49 48 40 42 45 48 50 48 46
16 17 19 22 23 24 28 28 26 26 20 25 18 20 20 24 24 21 19 13 5 11 19 31 48 45 39 25 35 37 36 27 22 23 21 37 36 37 39 40 43 44 44 44 40
17 19 20 22 21 21 25 24 21 18 11 21 21 24 30 25 20 16 26 17 15 13 16 21 19 39 36 32 27 26 30 31 31 23 30 31 46 42 44 40 40 39 39 38 35
19 20 22 21 19 18 22 22 17 19 7 16 25 21 31 29 14 11 9 13 23 18 18 17 24 22 13 29 33 37 29 22 15 18 26 35 29 55 56 55 50 45 44 41 38
22 23 25 19 18 20 21 19 13 14 4 14 18 19 18 22 17 4 8 9 23 25 17 24 13 12 27 21 19 29 23 26 22 31 24 28 17 58 19 21 36 40 41 39 38
24 24 22 14 21 19 16 17 8 5 4 21 20 23 19 22 17 13 17 9 12 21 29 23 21 18 9 9 19 14 8 12 22 21 15 32 27 61 38 39 39 32 25 21 18
24 25 12 14 21 16 18 16 2 5 17 17 31 19 16 24 16 23 5 6 1 5 12 20 27 20 17 16 15 16 11 4 5 7 11 7 29 54 14 8 21 10 8 9 13
23 23 10 16 21 18 19 14 5 10 13 26 29 16 14 22 15 23 13 7 3 4 7 7 7 13 12 16 15 19 22 8 6 5 5 27 19 22 31 22 27 22 17 14 9
22 20 14 19 18 18 18 13 7 16 20 27 24 15 23 20 19 25 13 7 6 12 2 3 8 12 10 10 5 9 23 25 12 18 4 16 31 41 32 12 14 15 23 15 11
20 20 17 20 18 18 19 9 16 12 16 17 13 12 21 24 23 17 12 7 7 6 4 3 6 9 12 11 15 12 8 17 15 4 5 9 19 26 7 10 10 11 11 14 18
20 18 19 22 20 18 19 17 16 10 12 15 16 18 21 15 18 14 6 10 8 10 8 6 9 9 10 11 10 17 12 15 17 24 3 3 10 7 13 19 23 14 19 18 18
22 17 20 18 19 20 18 17 19 16 15 16 17 14 17 16 19 12 9 11 13 12 8 2 4 8 20 19 15 14 21 15 17 11 30 17 17 14 12 6 18 14 19 18 11
24 17 18 11 14 21 19 15 15 20 21 14 17 9 11 19 20 10 17 14 11 15 8 12 3 6 12 3 12 17 24 26 24 20 24 8 15 9 17 13 11 11 19 14 19
27 21 19 10 20 17 20 16 18 20 19 17 8 15 20 22 14 12 18 12 12 13 14 12 11 11 10 14 12 11 14 20 21 20 23 38 30 28 15 13 16 7 19 17 19
27 24 23 22 16 15 16 17 16 24 24 16 18 18 20 25 27 17 12 18 19 16 17 15 15 14 18 17 17 20 21 23 23 27 20 25 44 34 28 23 20 13 21 24 21
26 24 26 23 20 18 14 14 16 21 22 21 22 24 24 26 26 31 27 29 24 17 13 18 20 18 22 21 17 23 26 27 32 28 26 29 51 44 29 21 18 13 16 28 21
26 25 27 26 24 22 17 15 17 19 13 17 21 27 26 21 24 29 32 29 33 30 23 22 19 11 14 13 22 14 31 35 37 33 24 34 45 40 18 11 13 19 17 28 20

GFSSW_700_spd_024.txt.gz
Wind_Speed
27 28 28 28 28 29 30 30 30 32 33 35 36 36 36 35 35 36 34 31 31 34 38 35 33 31 29 29 27 28 31 35 34 32 23 16 18 22 22 17 8 4 11 9 2
20 21 22 22 21 21 22 23 25 26 27 29 32 35 35 37 37 36 36 32 32 35 39 40 38 35 34 35 33 36 40 39 31 30 27 25 20 21 29 29 24 14 13 12 19
13 13 13 14 15 15 15 15 17 19 21 23 26 29 31 34 34 33 34 34 34 35 42 43 42 42 42 40 40 42 48 38 36 31 31 29 30 28 36 35 30 31 31 28 29
9 9 10 10 10 11 12 14 15 14 14 16 19 23 25 27 17 21 23 23 27 36 41 42 44 45 49 50 47 47 49 44 40 37 34 33 36 40 40 41 37 37 34 34 43
8 7 8 10 11 13 14 17 18 19 21 22 23 23 22 21 19 25 29 29 29 27 37 43 44 46 51 53 48 51 51 48 45 42 39 38 40 42 48 42 40 41 38 42 38
8 9 10 11 12 14 17 20 21 22 23 25 28 33 33 29 18 22 27 29 29 32 34 36 44 46 50 52 51 53 51 51 48 46 42 42 45 44 51 39 40 40 40 40 40
8 9 11 11 14 15 17 19 20 20 22 25 31 34 36 27 26 24 29 29 28 35 38 36 34 42 52 50 51 52 51 44 49 48 47 43 52 60 50 44 45 41 39 40 43
11 12 14 16 17 20 21 21 22 20 23 25 26 30 23 18 13 21 21 28 31 37 43 33 35 40 45 44 46 41 43 50 53 44 42 36 63 55 50 46 48 47 46 43 43
13 15 16 17 18 20 20 21 22 22 23 23 22 31 25 27 26 25 22 24 29 37 36 37 36 38 43 40 32 36 42 45 44 44 34 43 68 54 46 46 49 49 49 50 48
13 15 18 18 19 20 21 21 20 20 20 24 22 19 27 26 22 23 24 25 20 27 31 35 35 36 41 45 40 34 36 29 28 30 28 41 61 50 46 44 47 47 46 48 52
15 16 20 21 21 21 22 25 21 19 16 17 15 20 26 26 20 23 25 25 19 11 18 24 35 46 47 44 42 15 21 18 19 21 19 29 37 39 37 43 46 46 46 45 47
17 19 21 23 24 22 24 27 28 26 19 12 17 15 25 27 29 20 18 24 23 9 7 21 37 41 34 32 36 37 24 17 15 22 27 35 41 42 44 49 50 49 47 46 44
19 21 22 26 22 21 23 24 25 23 24 9 16 20 23 25 15 30 19 16 20 17 13 13 13 27 30 24 21 23 31 32 26 24 25 28 43 47 49 50 49 49 46 43 39
21 21 23 25 18 23 22 22 23 19 12 13 16 14 21 22 13 21 19 15 23 18 18 14 18 23 13 28 29 26 17 13 13 15 20 24 21 44 46 48 46 45 43 41 38
22 22 24 20 19 24 21 19 18 14 4 15 21 23 18 14 18 17 13 14 17 20 19 20 15 10 21 20 15 26 26 23 20 17 23 30 17 58 31 39 37 33 32 32 32
22 22 22 16 18 24 21 18 13 5 4 14 21 17 17 15 12 18 18 15 14 19 25 27 23 20 16 7 13 15 14 19 16 21 10 31 21 57 39 42 32 32 28 26 17
24 23 22 18 21 25 21 14 3 2 12 13 26 19 14 21 15 20 19 13 9 4 11 18 25 20 24 20 15 15 18 4 3 5 8 13 23 53 4 4 6 1 6 1 10
23 21 19 18 21 20 18 12 1 6 11 19 21 18 14 24 17 22 16 10 10 3 4 6 6 25 14 14 12 13 22 7 6 5 5 27 18 21 22 28 27 22 16 7 13
21 19 18 18 19 17 16 5 4 9 13 19 23 16 20 23 17 22 16 6 9 9 5 3 4 8 11 17 12 13 24 29 6 3 2 12 27 31 9 9 4 10 19 17 13
19 18 16 19 17 15 14 4 9 9 13 15 16 13 23 25 18 21 11 5 9 12 10 4 6 7 5 5 10 9 10 17 11 4 5 9 16 18 6 10 2 7 15 13 15
19 16 16 18 16 17 16 10 10 9 13 17 20 20 20 20 19 18 8 12 6 15 11 8 7 7 10 11 13 14 15 11 14 19 3 3 5 3 6 4 12 12 15 12 14
23 14 16 13 18 20 16 15 13 12 12 16 15 15 13 14 22 23 16 10 16 13 12 4 6 8 16 15 10 11 19 21 16 10 22 11 11 10 4 6 6 14 7 13 12
26 17 17 10 16 21 19 17 11 12 14 15 13 11 11 20 19 12 20 18 16 16 6 9 4 7 4 2 7 19 20 20 25 19 21 6 11 15 2 2 2 21 6 14 11
27 20 18 13 21 19 21 16 13 13 12 17 15 14 20 25 22 15 24 18 14 14 13 13 14 15 9 10 9 14 12 16 18 25 22 29 28 46 27 22 14 23 15 13 20
25 23 20 18 16 17 18 17 14 16 18 19 14 17 19 29 31 27 20 18 21 26 24 17 16 18 18 16 17 20 22 20 27 29 19 23 32 43 39 33 19 26 18 8 21
24 23 24 20 20 19 15 15 15 15 20 19 21 24 26 29 29 28 25 27 30 27 18 18 21 17 24 21 13 21 27 33 33 35 38 32 42 37 33 32 25 20 18 7 16
25 26 24 23 22 19 17 16 17 18 12 21 23 26 29 27 30 31 32 31 31 33 27 24 22 15 11 12 13 21 27 34 39 40 37 36 41 37 37 13 9 17 17 12 12

GFSSW_700_spd_027.txt.gz
Wind_Speed
24 25 26 26 27 27 26 26 26 27 28 29 29 29 30 31 30 31 31 29 29 33 34 34 38 34 33 33 30 28 31 28 33 31 28 20 14 22 26 20 17 10 12 15 13
17 18 18 17 17 16 16 16 17 19 21 22 24 24 26 28 28 27 28 29 29 34 35 37 39 38 37 36 35 36 39 40 34 27 25 22 19 22 28 26 20 12 16 16 13
11 11 11 11 10 9 8 8 8 10 13 15 17 18 20 23 23 24 25 26 29 33 37 38 39 41 43 41 42 43 49 39 36 29 25 26 29 23 31 33 30 22 22 24 23
10 9 8 7 7 6 6 7 9 10 13 16 16 14 13 15 11 20 24 23 24 30 37 39 41 43 47 49 47 47 49 45 39 36 32 31 31 36 36 36 33 32 32 32 30
6 6 6 6 7 9 11 13 14 15 16 18 19 19 16 14 15 21 25 25 27 26 30 39 42 43 48 50 48 52 50 49 46 43 39 35 40 41 45 42 39 38 38 37 41
5 6 8 10 12 14 16 18 18 20 21 23 21 21 22 20 10 19 22 25 26 29 33 34 37 41 47 51 48 48 50 52 49 47 45 42 46 46 52 48 47 40 40 41 42
7 9 11 12 14 14 16 17 18 21 22 23 23 21 22 16 17 17 13 17 26 31 35 36 34 37 44 46 48 51 46 38 48 51 51 44 50 63 52 51 51 50 51 50 45
11 12 13 15 17 18 19 19 19 20 21 20 22 19 14 15 16 18 19 14 19 27 39 36 37 38 38 38 35 37 41 42 50 50 52 42 62 61 50 52 54 51 50 50 47
14 16 17 18 20 20 21 20 21 21 20 19 16 22 14 21 21 19 19 19 16 23 31 34 38 40 36 35 25 26 39 42 38 35 42 31 61 51 50 37 43 43 46 47 49
14 16 18 19 21 22 21 20 20 20 19 20 14 11 20 19 22 19 20 19 20 22 27 28 32 40 41 28 39 30 30 33 34 29 33 42 64 50 41 45 50 51 51 51 52
15 16 18 20 22 23 20 20 18 16 19 17 13 13 18 20 20 20 21 23 18 21 16 20 29 38 33 30 32 23 17 26 24 22 27 39 44 46 47 53 54 55 53 52 53
17 18 19 20 23 22 25 24 20 19 16 13 11 15 20 24 24 19 23 21 15 15 19 14 25 23 21 22 27 28 22 13 17 22 28 26 36 42 43 49 51 50 49 49 49
19 19 21 22 23 20 24 24 22 21 19 3 8 18 19 21 19 19 21 19 14 18 17 15 19 17 22 25 21 26 32 31 16 18 25 23 38 40 47 48 48 48 48 47 47
20 20 20 22 20 20 24 24 21 21 8 4 11 12 19 17 6 15 19 20 14 15 19 22 20 19 13 19 24 26 15 17 26 22 23 14 15 26 32 47 51 49 47 44 41
22 21 20 20 18 20 24 22 19 14 4 10 12 15 12 14 16 14 17 21 18 18 17 26 12 13 18 18 13 26 26 16 12 16 17 24 18 38 24 35 42 46 41 34 31
21 20 19 17 17 20 21 19 15 4 4 9 15 17 15 15 15 13 17 18 16 22 18 24 23 18 15 12 15 14 15 22 22 19 18 26 17 43 33 33 34 30 30 29 27
22 20 18 17 16 20 18 14 6 4 8 8 17 18 15 21 20 12 16 16 15 10 5 12 22 31 23 20 14 12 13 9 13 15 18 13 19 43 2 2 3 7 7 10 8
23 20 19 17 18 17 16 9 5 7 11 15 19 17 11 18 18 18 17 10 11 9 14 7 9 14 23 27 19 18 24 11 13 12 17 18 18 18 20 22 14 14 12 12 8
22 20 19 17 18 13 13 3 3 9 11 16 20 15 16 15 17 16 18 8 9 8 8 8 5 5 10 18 20 17 17 25 5 6 9 18 24 29 9 9 6 6 12 16 11
20 18 14 17 14 12 12 7 6 8 11 14 11 12 14 19 16 13 13 6 10 7 14 7 11 8 13 9 15 14 11 16 15 6 8 9 22 14 10 11 12 6 10 15 14
19 15 15 17 12 15 12 10 14 7 10 10 16 15 16 18 12 13 8 19 6 14 15 13 6 6 7 10 11 17 11 12 16 17 3 2 3 8 13 13 7 5 9 11 11
21 13 15 11 14 18 18 17 17 8 10 16 14 14 17 14 17 15 14 12 17 22 17 15 7 10 13 11 12 14 12 14 16 24 19 12 7 11 13 10 7 18 7 10 15
23 15 16 10 12 16 18 18 15 11 10 12 11 13 13 17 16 13 18 17 20 20 10 10 5 8 9 3 3 9 10 16 11 15 20 15 9 15 9 1 8 20 20 7 20
25 16 17 11 18 17 18 14 12 11 12 11 20 11 15 20 20 19 29 25 21 18 12 13 13 14 12 9 11 15 12 16 12 18 23 29 34 31 25 20 6 17 24 8 18
26 18 18 15 15 18 17 16 16 11 12 18 14 15 17 29 30 27 19 26 20 21 21 24 22 18 19 20 20 20 25 22 22 23 18 22 38 33 28 31 28 20 17 18 13
23 22 21 16 17 18 13 15 14 12 19 18 17 23 23 27 27 37 30 28 31 27 23 23 22 16 21 19 20 28 27 28 27 27 29 28 46 38 41 35 29 13 12 19 9
23 22 23 20 18 17 16 15 16 19 11 21 19 21 26 25 30 33 33 34 34 39 30 23 18 10 18 15 15 22 31 30 28 27 27 33 43 35 34 34 27 17 12 14 9

GFSSW_700_spd_030.txt.gz
Wind_Speed
19 19 19 20 21 22 22 22 21 22 22 22 22 25 25 25 28 28 28 28 32 35 35 35 35 33 33 33 32 28 27 30 29 27 23 16 17 18 17 19 18 16 12 16 22
11 12 12 12 12 13 14 14 14 15 15 14 15 17 18 20 22 24 26 28 31 34 34 36 36 34 36 38 36 35 33 37 29 24 23 21 18 17 19 22 22 17 19 22 24
9 8 8 7 6 5 6 6 9 11 11 10 11 12 13 14 16 20 22 25 28 31 35 37 38 40 39 34 38 37 45 32 32 28 25 25 27 20 22 27 27 21 19 22 25
5 5 5 4 4 5 7 8 10 12 10 9 9 11 11 11 4 13 15 17 20 23 31 37 38 41 43 41 35 38 39 39 34 28 29 33 28 32 29 29 29 27 29 27 28
6 6 6 7 8 9 11 12 13 14 13 13 14 13 11 11 14 13 13 16 19 23 25 30 36 38 40 31 35 40 44 35 35 31 30 37 41 37 37 31 31 40 38 34 31
8 8 10 11 13 14 16 17 17 16 15 15 14 14 13 12 11 12 14 14 15 19 25 29 28 33 37 34 33 36 36 43 38 32 32 38 47 32 46 36 41 43 42 37 38
8 9 10 12 14 15 16 18 18 19 18 16 15 15 16 10 11 15 15 18 19 18 21 28 30 33 26 33 35 36 37 33 35 43 40 27 44 55 49 39 37 50 45 43 44
11 11 12 13 15 17 18 19 19 19 18 17 17 13 15 10 15 16 15 14 16 20 21 21 28 34 35 28 24 25 33 41 52 36 38 35 48 64 50 48 45 53 52 50 49
13 14 15 14 16 17 18 18 18 18 18 16 17 13 2 17 20 22 19 16 17 16 18 21 17 26 25 28 28 31 42 45 46 41 39 30 56 68 51 40 44 40 51 55 52
16 17 18 17 18 19 18 19 19 18 15 16 8 9 10 13 20 16 17 17 17 17 15 15 16 17 22 29 41 43 37 41 42 36 38 44 53 48 32 27 42 45 40 40 52
16 18 18 18 17 18 17 19 21 16 16 14 14 8 14 19 16 17 17 17 16 12 10 13 15 21 22 30 40 35 36 35 35 35 34 45 53 48 43 44 43 37 37 39 41
15 17 17 17 18 18 17 18 17 16 14 14 8 7 16 18 14 9 17 11 12 11 11 14 21 17 21 25 32 35 37 40 27 25 33 40 45 42 40 43 43 43 44 47 54
18 17 18 18 19 18 17 19 18 17 18 9 4 11 12 15 15 8 13 13 13 13 13 20 20 17 17 20 27 31 36 36 36 21 27 28 36 38 38 35 38 41 45 49 51
19 18 17 17 17 17 18 19 17 15 5 4 3 7 11 14 9 16 7 13 11 14 14 18 16 20 19 22 23 34 31 29 36 34 35 25 28 35 34 37 41 42 40 43 45
20 19 17 16 15 17 20 19 17 11 5 4 4 11 13 10 12 10 9 13 16 18 16 25 23 17 19 20 22 25 29 29 26 34 38 41 30 34 30 34 33 31 34 35 41
20 19 17 15 15 17 19 17 15 2 2 2 6 12 14 11 14 11 12 13 16 16 15 22 17 20 20 16 16 20 19 27 28 24 25 35 30 32 31 35 26 27 29 28 30
21 19 17 15 14 17 16 14 5 5 6 4 9 14 16 11 14 12 15 14 12 14 13 18 14 15 24 23 19 16 22 17 22 25 19 30 27 30 3 11 12 11 12 14 17
21 20 17 14 15 13 13 5 6 4 9 11 13 19 12 12 12 18 14 15 11 12 17 11 13 11 9 29 27 27 27 26 18 16 22 38 20 27 21 25 14 12 12 12 13
20 20 17 15 15 11 10 6 5 8 7 13 17 10 10 12 17 16 14 11 6 11 10 16 9 15 12 13 25 28 24 29 34 29 23 31 35 31 17 7 5 4 8 12 18
18 18 13 16 14 11 5 8 6 10 11 10 11 9 16 18 15 12 13 8 9 11 11 12 19 13 10 15 17 23 20 11 31 16 18 19 31 21 22 25 11 5 10 12 21
18 15 12 15 11 9 6 8 12 10 10 7 11 17 15 16 13 14 10 15 9 8 14 17 15 14 13 11 19 16 15 17 21 30 9 13 21 28 16 18 7 5 13 10 16
17 6 13 12 8 14 8 15 17 10 8 11 14 13 13 15 16 16 16 14 16 17 17 17 15 19 17 12 10 8 16 19 9 20 24 16 5 16 24 11 8 14 17 13 13
19 9 14 10 7 13 13 14 12 8 6 7 10 12 16 18 15 12 17 15 16 17 11 8 11 14 14 8 12 15 17 13 23 13 22 14 7 19 15 5 11 17 19 19 10
20 12 15 9 13 13 15 8 7 10 11 8 14 16 13 15 15 21 25 24 21 18 19 19 19 20 17 22 12 11 12 15 15 18 20 25 21 13 10 7 14 15 18 18 4
18 14 15 9 9 15 12 11 10 9 8 12 12 12 16 24 23 28 23 22 24 25 23 21 24 21 23 24 23 22 21 20 22 24 26 26 29 28 20 19 20 17 15 14 5
15 19 20 14 12 14 10 7 10 9 17 13 17 16 20 24 25 39 34 35 37 34 24 24 23 19 25 22 24 27 26 25 26 27 29 31 39 31 26 27 25 19 14 11 9
12 14 22 20 11 12 7 9 13 18 10 11 15 23 25 25 27 31 33 28 30 34 30 24 23 14 21 16 17 23 26 26 29 27 28 34 36 27 28 26 25 20 15 12 4

GFSSW_700_spd_033.txt.gz
Wind_Speed
14 14 14 14 15 15 15 16 16 17 18 19 19 20 22 23 24 25 26 30 30 31 30 31 34 33 34 35 29 22 29 34 31 29 28 22 25 22 22 22 18 21 11 14 21
10 10 9 9 9 9 9 9 8 8 9 10 11 13 14 15 15 19 23 26 29 30 29 32 34 33 36 37 31 33 34 38 30 26 26 25 24 21 22 26 21 23 18 17 24
8 7 6 6 6 6 6 7 8 8 9 10 11 11 12 12 12 20 17 20 24 26 29 33 34 34 31 30 34 36 47 36 33 28 27 28 26 24 26 29 28 25 21 16 18
8 8 8 8 8 9 10 10 11 11 11 10 12 12 11 9 1 12 11 14 16 19 25 30 33 35 32 37 33 35 44 41 39 33 26 33 28 29 31 31 26 28 23 23 18
6 6 7 8 9 10 11 11 12 12 12 12 12 11 10 6 10 14 12 14 17 19 22 23 24 22 34 33 32 44 42 41 38 31 34 27 35 34 32 32 30 29 28 23 23
8 9 10 11 12 14 14 13 13 13 13 12 12 10 9 4 15 11 12 13 12 12 16 19 20 17 27 30 38 35 40 44 39 37 36 40 39 31 40 33 36 35 35 33 32
11 12 13 14 15 16 16 16 16 14 13 13 12 10 9 11 11 13 14 15 14 14 16 13 20 24 15 20 31 34 39 38 41 40 45 36 41 43 45 35 37 39 38 37 35
12 12 12 14 15 16 17 18 18 17 15 14 12 11 3 9 11 11 15 14 12 17 16 17 19 21 25 26 25 20 30 42 52 40 40 39 55 50 42 40 42 40 39 39 38
13 13 14 15 16 17 18 19 18 17 15 13 12 6 4 13 12 19 16 12 11 13 14 18 17 17 17 23 28 34 43 41 45 40 41 40 50 54 48 42 40 43 44 43 41
16 16 16 16 17 17 17 17 17 17 11 11 7 5 4 8 17 15 12 13 13 12 11 15 13 14 16 22 37 36 36 41 45 39 36 43 51 49 44 44 45 45 42 43 45
17 17 16 15 16 15 16 17 16 19 14 12 12 13 12 13 14 12 11 12 9 12 13 10 18 19 18 21 30 33 38 42 40 36 37 43 44 54 47 40 39 43 43 49 51
18 17 17 16 16 16 15 12 14 15 16 14 14 7 11 12 12 11 10 12 12 15 14 16 21 18 20 21 27 30 34 42 42 37 31 37 42 51 42 45 44 42 44 42 36
18 17 17 16 15 13 13 14 16 16 14 7 5 5 6 10 14 12 11 12 14 17 15 19 21 20 20 24 25 26 32 35 36 35 36 37 43 45 46 41 41 43 43 43 43
18 17 17 16 15 15 11 15 14 15 5 5 1 4 7 11 11 11 12 10 14 18 18 22 20 20 21 25 24 28 25 29 35 31 37 40 29 41 38 41 41 39 39 39 41
19 17 16 14 13 9 14 13 12 7 5 2 5 8 8 11 17 11 13 13 18 20 19 24 22 26 28 27 22 29 25 27 30 37 35 43 38 41 31 37 37 35 36 37 39
21 19 17 14 14 13 13 11 7 1 1 3 5 8 13 15 14 15 16 16 18 19 18 24 22 22 26 26 23 20 23 26 29 34 30 39 44 44 40 34 29 29 32 32 32
21 19 16 13 6 15 11 9 7 7 4 2 9 16 16 14 15 12 17 17 17 16 21 22 20 17 13 18 21 20 19 18 20 22 20 37 41 35 40 36 31 31 30 26 23
20 19 16 11 11 10 10 5 8 5 11 13 13 18 14 11 12 14 18 17 15 13 19 16 15 11 9 12 24 22 26 21 17 16 20 39 37 39 34 30 16 17 20 19 21
20 19 18 10 12 7 5 8 10 10 10 13 16 12 9 11 16 17 14 17 11 13 17 19 12 19 18 12 13 22 29 28 31 37 26 35 38 46 32 24 22 14 12 14 17
19 17 7 14 14 7 4 12 12 10 13 13 14 9 16 19 17 15 15 12 13 15 16 16 26 19 16 14 17 24 21 20 14 19 23 23 31 35 42 31 20 14 10 10 14
15 10 12 15 15 5 9 10 13 10 13 8 11 17 19 19 17 20 16 18 15 13 16 20 24 27 19 18 21 11 17 18 14 23 12 16 17 24 38 40 25 12 7 8 10
10 2 11 13 7 6 8 13 16 9 10 13 13 15 16 16 21 22 22 18 15 17 21 19 27 27 26 23 19 15 13 20 8 16 32 19 28 11 17 34 24 8 1 7 10
11 3 7 12 2 8 11 15 14 11 9 10 12 15 15 21 22 17 19 19 18 18 13 16 12 17 21 21 18 13 15 15 14 17 20 11 17 15 27 19 10 4 6 7 6
11 5 7 17 7 10 13 10 9 10 12 11 13 15 16 18 19 25 28 27 28 23 22 25 25 26 23 29 8 12 15 12 16 12 22 30 26 29 9 13 4 4 8 12 8
9 8 11 4 10 15 12 12 14 12 9 12 15 12 18 24 24 27 24 28 31 34 31 27 33 26 31 34 30 24 23 17 22 27 34 32 20 28 20 15 7 10 11 8 8
8 9 11 14 9 12 7 7 11 10 16 19 18 19 20 24 26 39 35 36 36 39 24 21 29 22 30 26 29 28 27 23 24 33 33 31 29 23 23 21 15 12 8 2 5
13 14 14 12 10 11 13 11 15 17 8 9 16 23 23 22 25 31 34 22 27 28 30 27 22 13 28 23 24 27 27 25 25 31 32 33 28 23 24 21 18 16 12 7 4

GFSSW_700_spd_036.txt.gz
Wind_Speed
11 10 11 12 12 12 13 14 14 15 16 17 19 19 19 20 21 23 25 28 30 28 27 26 29 31 31 35 28 22 31 35 29 25 25 21 21 18 20 20 23 19 9 21 23
10 9 8 7 5 5 4 4 6 7 8 9 11 11 11 11 12 19 21 19 24 25 25 28 27 26 31 33 35 29 37 42 29 25 25 22 23 21 23 24 23 19 21 10 22
7 7 7 7 6 6 6 8 8 9 9 10 11 11 11 11 12 18 11 14 17 19 22 26 29 31 26 26 29 34 48 37 34 28 27 26 26 20 22 25 26 28 21 15 11
9 8 8 8 8 9 9 10 10 11 11 11 12 12 11 7 3 9 12 15 14 14 17 20 25 27 31 28 27 34 42 41 38 36 32 30 29 31 30 29 28 24 26 20 20
10 10 11 11 12 12 12 11 12 13 13 12 11 10 9 4 7 12 16 15 13 14 14 12 14 17 25 26 25 39 39 39 39 38 36 35 35 31 31 30 30 26 26 30 32
11 12 12 13 13 13 13 13 14 14 13 12 12 11 7 4 19 22 19 14 13 14 13 12 12 16 23 23 28 32 36 38 38 38 36 38 39 33 32 32 33 28 32 27 27
12 12 13 14 14 14 14 15 15 15 15 13 12 11 9 6 16 15 10 12 12 15 17 13 12 16 13 16 23 27 34 36 40 39 42 38 42 48 42 35 32 35 33 37 30
16 15 15 16 16 16 17 17 17 16 15 13 10 8 5 15 12 8 13 13 11 13 14 18 20 18 18 21 26 21 23 35 45 36 42 34 52 52 44 43 45 38 35 38 36
18 18 17 17 17 17 18 17 17 16 14 11 9 4 5 14 9 16 16 13 12 12 13 12 15 17 15 18 22 28 37 33 34 31 36 38 47 47 43 47 42 41 41 41 39
18 17 16 15 15 16 16 16 16 14 10 5 4 1 4 6 14 19 13 11 14 12 12 12 15 16 15 16 30 25 29 33 38 36 32 38 45 50 47 42 46 51 45 39 43
21 20 17 15 14 14 14 14 15 16 15 8 12 16 11 11 16 10 12 12 11 11 16 13 16 20 16 19 25 27 30 36 40 34 31 36 42 48 44 47 47 45 42 48 45
22 22 20 18 16 14 14 9 13 13 18 11 15 14 12 12 12 10 13 11 12 14 16 16 19 18 19 22 26 26 28 34 35 32 32 40 41 39 44 44 41 46 44 41 45
21 21 19 18 15 13 12 11 14 13 16 1 6 5 5 9 12 13 10 12 14 16 15 18 19 20 21 23 23 26 28 31 32 29 30 36 41 44 38 34 39 43 38 47 41
21 20 19 17 14 11 5 19 15 13 5 5 3 0 4 7 4 8 12 12 12 18 19 22 20 22 25 27 27 31 27 29 28 28 29 29 26 38 42 39 39 36 44 36 38
22 20 19 16 12 5 11 13 12 5 4 2 3 10 4 8 15 13 13 13 15 19 19 22 21 23 27 28 27 33 28 28 29 31 32 33 30 38 37 43 39 36 37 45 47
20 19 18 15 12 10 11 9 4 2 2 3 4 8 13 14 16 12 13 16 20 22 21 24 22 24 25 27 29 29 29 27 27 30 24 37 33 40 38 40 37 28 30 37 35
18 17 16 13 5 13 9 11 6 8 2 3 9 16 16 18 9 14 14 18 18 18 20 21 22 18 16 20 23 23 23 18 20 18 17 34 36 37 36 34 38 33 30 28 26
22 17 14 13 8 10 4 4 7 4 10 13 14 18 17 12 10 12 17 18 16 13 20 23 25 20 21 16 24 24 23 14 19 16 19 29 20 32 33 36 37 35 30 25 19
19 16 12 2 9 10 4 6 5 11 11 15 17 15 11 10 15 15 17 17 12 11 18 23 28 25 22 22 22 18 16 21 19 30 21 36 39 32 31 32 33 39 36 26 23
14 11 4 10 14 11 2 9 12 9 14 14 14 11 17 20 18 17 18 14 16 15 18 19 30 25 26 23 21 20 18 19 15 12 17 22 31 22 24 27 34 32 30 26 22
11 8 11 13 17 8 7 9 13 12 14 9 13 17 17 18 16 19 20 22 18 15 16 20 26 32 23 21 21 22 13 19 23 9 5 8 19 30 17 17 28 30 26 22 16
6 4 13 10 7 6 5 12 16 16 14 12 13 13 13 18 19 22 21 19 21 15 15 15 22 30 30 28 28 25 22 12 13 13 18 22 39 30 29 16 17 32 21 17 22
7 4 15 13 4 7 11 13 11 9 9 11 14 15 14 17 19 12 22 19 24 26 19 26 13 23 24 23 14 13 4 11 20 20 20 13 21 26 27 13 9 6 8 13 22
10 5 7 10 7 12 17 13 10 14 11 11 12 13 14 16 19 25 27 24 28 30 29 25 29 29 26 32 21 17 24 24 22 16 28 24 29 27 34 42 6 8 11 13 21
10 5 12 5 12 13 13 14 12 13 10 11 17 16 18 23 24 25 20 33 31 31 31 19 25 23 32 34 32 32 29 31 34 30 31 22 28 26 31 25 8 16 9 8 18
11 13 15 15 11 10 13 15 13 13 15 19 15 15 17 22 24 36 31 33 38 34 27 30 26 22 34 27 26 30 30 38 39 36 30 24 25 22 26 26 22 18 9 6 13
16 15 15 12 6 10 12 14 17 20 12 7 17 22 20 20 25 29 34 31 27 29 18 18 17 15 22 18 18 24 33 32 36 28 26 26 22 19 18 25 22 13 9 10 8

GFSSW_700_spd_042.txt.gz
Wind_Speed
9 8 8 7 7 7 7 8 8 9 11 12 13 14 14 16 19 22 19 22 24 26 26 26 26 25 27 30 29 30 37 42 39 31 27 8 19 13 12 16 7 11 18 9 12
10 8 7 6 6 6 6 6 7 7 8 10 10 10 11 11 11 12 10 12 15 18 23 23 23 25 29 28 31 34 42 46 40 34 31 20 20 22 19 16 8 9 6 21 12
9 8 8 7 7 8 8 9 9 10 10 11 12 12 10 11 10 9 5 6 5 7 11 15 18 24 27 26 32 37 46 42 41 36 33 30 34 27 25 21 11 2 10 7 15
12 11 10 10 10 10 10 11 11 11 10 10 11 12 11 10 6 6 4 6 8 6 5 7 13 20 23 27 28 36 39 38 38 37 38 38 34 37 33 28 20 13 9 7 12
14 13 12 12 12 11 11 11 12 12 12 12 12 11 10 10 10 10 9 9 13 12 7 8 11 16 20 23 26 32 33 33 32 33 35 32 40 41 41 33 27 23 18 11 15
16 16 16 15 14 13 13 12 12 13 15 15 14 12 9 9 11 7 7 9 9 9 8 7 11 16 16 21 25 29 32 34 35 34 31 29 33 36 46 38 35 33 27 20 11
17 16 15 15 15 15 14 14 14 14 14 14 14 11 7 9 6 8 6 8 10 10 10 10 9 15 18 19 25 31 36 38 37 35 33 30 38 42 44 43 41 39 36 28 21
19 18 17 15 13 13 13 13 13 13 14 12 11 7 5 5 3 5 5 13 10 10 9 7 6 7 11 18 22 23 25 33 24 23 28 26 48 42 40 41 44 43 46 38 30
21 19 18 16 14 12 12 12 11 12 11 10 6 2 4 4 1 6 11 17 7 9 9 8 6 8 11 12 13 12 20 24 26 18 14 18 43 40 39 40 43 47 47 48 40
22 20 18 17 15 13 12 12 11 10 8 2 1 7 10 8 6 12 17 12 6 2 3 6 10 14 12 13 12 16 22 22 21 17 14 16 37 34 32 32 35 40 49 49 53
22 20 18 16 13 13 12 11 8 9 8 11 10 13 11 7 10 11 5 10 11 6 4 2 8 9 15 16 18 23 28 29 24 22 24 25 34 34 33 32 34 36 39 34 51
23 20 17 15 12 10 11 7 10 11 6 9 6 11 13 7 8 10 5 9 13 13 5 8 10 8 13 12 14 16 20 23 23 14 19 26 39 41 38 37 36 37 34 38 37
24 20 16 13 12 10 10 8 11 11 11 6 7 11 7 2 3 4 0 8 16 12 6 8 11 9 10 14 17 19 19 21 24 25 28 25 37 42 44 40 39 41 40 35 32
24 19 15 12 9 9 9 11 12 10 2 4 5 7 10 6 4 4 4 9 14 14 11 9 14 11 11 15 20 26 27 31 28 27 19 19 25 37 38 41 37 41 44 42 36
25 20 14 11 9 9 7 5 5 3 3 4 1 5 5 7 8 8 13 12 13 14 14 17 21 17 16 19 18 24 22 28 33 32 29 33 22 43 29 35 41 36 35 44 43
26 17 10 9 8 7 6 5 5 1 3 3 2 7 6 11 13 11 10 14 14 17 16 14 7 11 12 14 17 21 25 28 28 26 17 30 22 39 31 32 28 24 24 25 39
24 16 8 6 5 5 5 5 1 6 11 7 8 11 13 12 10 4 3 5 9 7 10 11 12 13 13 16 19 20 21 8 4 3 11 19 22 42 29 30 33 31 30 29 29
21 14 9 4 3 6 5 3 5 8 11 8 14 15 6 10 2 4 4 6 6 11 15 8 12 10 13 16 20 19 16 6 5 2 8 24 11 30 24 30 37 39 36 33 32
20 13 8 6 6 4 1 4 5 10 13 18 23 8 10 18 9 10 6 3 11 17 12 12 7 17 25 18 14 16 17 22 18 24 10 11 27 26 27 14 16 20 28 36 37
15 8 4 6 8 8 7 9 4 11 15 13 8 7 16 19 18 10 6 8 14 13 14 16 25 24 21 20 24 26 21 11 10 3 5 9 17 18 22 23 20 25 29 27 35
15 12 10 10 7 6 8 10 10 7 10 10 12 10 11 12 15 15 8 12 9 19 26 27 23 24 32 26 28 27 22 16 13 10 3 5 9 13 20 32 29 30 30 29 32
15 10 12 12 4 3 5 8 15 14 8 10 9 11 11 17 18 16 10 6 18 22 26 22 22 25 34 23 14 16 25 21 14 6 11 5 22 22 24 22 26 36 39 30 32
16 13 10 9 6 7 10 13 14 8 9 8 7 15 10 14 13 6 12 12 19 18 21 25 10 17 17 3 7 4 11 13 17 16 20 6 13 18 29 29 31 38 42 33 32
18 13 11 11 12 12 18 9 7 6 13 13 11 12 15 16 16 15 17 16 19 19 22 20 25 23 23 32 29 31 33 27 24 19 14 24 33 34 24 25 30 31 34 13 9
20 16 16 10 7 14 11 8 12 16 18 17 20 16 18 23 27 24 21 22 19 18 15 25 23 23 30 33 32 33 34 31 31 31 28 37 38 31 20 31 32 27 34 11 1
19 19 19 16 12 8 9 11 14 16 17 16 15 19 18 23 23 31 21 23 28 26 17 29 16 22 32 14 15 22 18 20 23 27 33 32 38 20 27 24 20 18 22 17 22
23 21 18 16 14 13 14 14 14 16 13 14 20 21 20 20 21 23 24 26 26 29 26 25 23 17 11 23 21 8 7 10 14 13 22 28 30 27 25 19 19 14 22 25 29

GFSSW_700_spd_045.txt.gz
Wind_Speed
11 10 9 8 7 7 7 7 8 9 10 12 12 13 15 15 18 19 21 24 27 30 29 29 27 28 31 34 33 33 37 40 40 36 31 15 15 18 15 16 5 8 2 6 13
13 11 10 9 9 8 8 8 9 10 11 11 11 11 11 11 12 12 14 15 19 23 22 24 27 29 31 32 33 36 44 44 41 32 32 25 25 20 26 20 10 5 5 13 15
13 13 13 12 12 12 11 11 11 12 12 12 12 12 10 11 10 10 10 9 12 16 12 17 22 26 28 28 32 38 45 38 35 32 33 31 36 30 31 29 19 7 7 10 10
14 14 14 14 13 13 14 14 14 14 13 12 11 11 9 8 5 5 8 6 7 5 4 8 15 21 25 27 29 33 38 38 38 37 35 37 36 42 37 36 27 18 10 7 9
15 14 13 14 14 14 14 14 15 15 15 14 13 12 11 9 8 8 9 9 9 7 7 7 9 16 21 25 28 30 32 33 33 34 35 37 40 40 47 38 36 31 26 15 11
17 16 14 14 13 12 14 15 16 16 17 16 14 12 11 9 7 7 6 4 5 6 6 8 11 14 16 21 23 27 30 34 33 33 34 34 37 36 46 44 40 37 34 26 21
21 18 16 14 12 12 11 12 14 15 15 14 14 11 8 8 8 7 1 6 9 8 7 7 7 11 15 15 20 25 29 30 29 28 32 30 39 44 41 42 42 38 37 33 27
21 21 18 15 12 11 11 11 12 14 14 13 10 8 5 9 8 2 1 12 10 5 5 3 2 1 2 7 15 21 22 22 11 5 14 22 49 37 34 38 41 48 40 36 30
21 20 20 17 14 11 10 11 10 11 10 11 6 4 8 7 2 1 7 11 6 6 4 2 1 2 5 9 8 5 8 15 9 1 6 21 36 29 28 32 35 45 51 47 40
21 21 19 18 15 13 11 9 9 9 8 2 2 10 11 8 4 4 10 8 4 3 4 1 4 4 6 11 11 15 19 17 18 11 14 19 31 29 29 31 33 35 42 48 55
24 20 18 16 14 13 11 9 8 7 8 8 8 9 16 8 4 5 7 5 7 5 5 5 4 5 3 7 9 14 14 15 12 9 18 23 34 34 29 30 31 36 38 41 42
24 20 15 14 12 11 11 10 6 8 1 4 4 10 13 8 7 4 5 4 7 8 3 6 9 8 6 6 11 12 17 19 19 18 20 25 37 37 34 35 35 36 39 39 42
25 21 15 12 10 9 9 10 9 6 5 11 17 14 6 6 7 6 2 3 5 6 8 5 8 6 4 8 12 15 19 23 27 30 26 31 45 37 36 37 37 37 38 41 40
26 22 15 8 8 9 8 9 8 4 5 7 5 7 9 6 3 4 6 4 6 8 8 3 10 12 9 9 13 17 18 24 28 27 21 24 24 42 38 38 35 35 36 35 42
25 20 12 8 7 4 5 7 4 5 4 3 5 3 2 3 8 7 5 11 8 9 12 12 11 7 7 7 7 13 17 24 27 29 28 26 17 51 34 41 41 35 31 28 30
22 18 13 8 4 4 4 2 2 3 2 2 4 6 10 7 8 9 10 10 16 19 19 20 12 7 8 10 10 16 21 27 22 20 7 26 21 50 41 40 36 27 23 24 26
21 17 12 9 6 5 2 0 2 5 4 3 6 8 9 5 4 1 4 7 15 6 5 9 9 8 11 11 13 15 19 7 5 3 5 7 12 36 23 26 26 31 33 32 28
19 17 14 10 8 5 3 1 4 4 4 11 15 10 9 5 6 6 3 1 4 6 7 3 6 14 14 12 21 23 19 5 5 4 10 31 10 26 21 17 21 22 25 30 35
17 15 13 11 10 4 1 3 4 5 9 7 13 5 6 9 11 15 9 7 7 10 8 6 6 9 17 23 15 14 15 20 21 24 11 14 23 29 24 9 15 22 21 23 25
14 12 10 9 7 3 4 5 4 3 5 7 9 7 11 14 13 15 11 7 8 6 9 11 20 18 12 11 18 25 26 13 11 4 7 10 15 23 18 22 16 20 25 23 24
12 11 10 5 3 2 2 3 5 6 10 4 10 11 11 14 16 17 9 12 9 13 16 17 16 16 28 28 25 20 21 21 18 15 4 8 14 23 16 18 25 27 23 25 25
14 12 13 10 6 5 4 8 11 16 10 9 9 10 11 13 12 13 9 7 10 15 19 16 14 21 31 22 12 17 21 19 16 8 14 18 37 37 33 27 22 24 30 30 31
14 13 14 13 9 8 9 12 11 7 10 11 11 14 17 16 13 7 10 10 17 18 11 21 7 13 16 3 2 10 14 18 23 20 19 9 31 17 17 31 32 29 26 33 36
18 13 14 14 14 14 15 9 8 9 12 11 14 17 18 21 21 16 19 20 18 19 24 22 19 15 16 23 27 35 35 33 29 17 22 33 48 47 44 42 32 27 29 30 33
19 14 16 13 12 14 16 13 13 14 12 15 14 13 14 18 23 25 20 20 22 23 17 14 21 24 30 27 27 28 27 25 27 32 30 41 44 41 38 34 31 30 30 25 25
20 18 17 16 12 13 14 16 16 19 18 21 18 17 22 23 21 31 26 21 22 18 17 16 21 28 35 29 24 33 32 24 24 23 29 34 41 30 33 30 31 30 33 26 26
25 23 19 17 16 18 15 14 17 19 15 14 21 26 25 23 26 25 24 24 27 29 27 30 30 21 23 22 27 18 6 8 16 15 17 17 25 26 28 27 28 28 25 25 23

GFSSW_700_spd_048.txt.gz
Wind_Speed
14 14 12 11 10 10 9 9 9 9 9 10 11 12 12 14 16 18 20 22 24 27 28 27 29 30 32 30 32 33 35 40 38 35 33 27 21 22 20 16 8 2 4 7 12
16 14 13 13 12 12 11 11 11 11 11 10 10 11 10 10 11 12 13 14 16 19 23 24 28 31 32 31 34 35 45 43 39 25 28 37 33 24 30 24 17 8 5 3 10
17 16 16 15 14 14 14 13 13 13 13 12 11 10 9 9 9 10 10 9 10 12 15 17 24 28 29 29 31 37 42 37 32 31 33 36 42 35 35 31 25 16 12 6 11
18 17 17 16 16 15 15 15 15 15 12 11 11 11 9 8 4 7 7 7 8 7 9 10 15 21 24 25 28 29 33 35 38 33 34 34 36 40 39 40 33 27 19 10 10
18 18 17 16 16 15 15 16 16 15 15 13 12 12 11 9 9 10 9 9 10 9 9 9 9 12 17 20 27 26 31 31 29 31 35 35 35 37 44 38 39 37 31 20 14
20 18 17 16 16 15 15 14 14 14 15 15 14 12 11 10 10 9 4 5 6 7 7 8 8 11 12 14 18 21 26 30 30 30 32 34 34 36 43 39 37 41 39 32 22
19 19 18 17 15 15 15 14 13 13 13 13 13 13 10 10 11 6 4 2 4 5 5 5 6 6 9 9 13 16 19 21 23 24 27 26 38 41 35 36 36 36 37 39 36
17 18 18 16 15 15 15 14 13 12 11 11 10 9 9 9 8 5 3 5 6 2 2 5 3 3 1 2 6 6 4 3 3 4 6 16 33 24 24 26 33 37 43 39 39
17 19 18 14 13 13 13 13 12 11 11 9 8 6 6 9 8 6 2 6 3 2 1 1 2 3 1 6 1 3 6 8 3 4 11 13 15 6 11 20 24 28 36 39 44
20 19 16 14 13 12 10 11 11 11 9 4 2 7 8 10 9 6 4 4 2 3 4 4 3 3 2 5 3 7 8 8 8 7 14 22 24 21 23 25 26 25 28 31 32
20 19 18 13 10 11 9 9 9 9 9 5 4 7 13 8 3 4 6 2 4 4 7 9 6 3 2 2 4 6 8 10 13 11 22 25 30 26 27 28 28 29 32 34 33
21 19 17 12 9 8 8 9 8 8 4 4 2 12 12 8 5 4 5 4 6 9 4 3 5 5 5 4 5 8 11 15 17 21 25 30 38 36 33 33 31 33 34 36 37
22 19 15 9 7 6 7 8 9 5 11 14 13 7 11 3 5 7 5 3 2 1 6 6 6 5 4 4 6 8 12 15 20 28 30 32 46 39 35 36 37 36 36 37 40
21 18 14 10 7 5 5 5 4 5 5 4 5 7 7 5 4 2 3 4 5 3 3 2 3 5 5 7 8 12 13 17 21 26 19 23 15 39 34 33 35 35 33 34 36
20 17 14 10 6 4 5 4 2 4 3 3 4 2 2 4 6 3 6 11 9 11 10 11 12 13 10 9 8 10 12 17 22 22 23 22 11 5 19 30 37 39 41 38 33
18 16 12 9 6 5 3 1 1 1 1 3 3 5 6 4 8 10 10 14 16 18 18 20 18 12 9 9 8 10 13 21 15 17 3 4 10 30 25 15 13 21 16 17 21
16 14 12 10 6 4 1 1 2 3 1 3 5 11 7 5 7 8 6 13 14 10 14 10 9 11 12 13 11 10 18 6 4 1 5 5 8 36 42 33 23 20 18 24 29
15 14 12 10 7 4 2 1 2 2 3 5 8 11 8 12 11 10 9 6 8 7 9 8 6 11 14 17 15 19 18 6 5 3 11 22 13 29 29 28 26 19 19 19 22
15 15 14 11 9 4 2 3 4 4 5 6 9 7 6 7 12 13 12 12 8 7 4 5 8 11 11 15 22 15 9 11 18 24 7 13 25 45 34 21 15 14 18 19 22
14 14 13 10 8 5 2 4 6 5 5 6 7 6 8 13 10 10 12 8 5 6 5 5 11 15 15 13 12 19 15 8 6 4 5 6 24 27 30 29 23 20 21 24 21
14 12 13 8 5 4 4 4 8 10 12 9 9 12 14 13 14 15 10 11 9 10 10 11 12 11 13 19 17 16 12 10 14 15 3 7 13 17 18 19 25 29 37 29 26
15 11 12 9 8 7 4 8 10 13 14 10 12 14 16 15 17 13 14 7 9 11 13 13 9 13 21 10 10 11 14 15 9 5 14 19 38 24 24 27 33 29 28 33 35
17 12 13 10 10 11 10 9 13 11 10 8 10 14 17 17 12 9 10 12 12 17 10 14 6 9 13 2 3 7 16 20 21 27 34 15 39 18 25 38 43 38 43 43 34
20 13 16 10 15 14 15 10 8 11 15 15 15 16 18 21 20 16 18 16 18 23 21 21 19 17 16 19 21 28 26 21 23 22 26 30 50 48 45 43 43 33 31 32 32
23 16 16 17 16 14 17 17 15 16 16 14 16 17 18 18 20 24 14 15 19 22 22 24 27 25 28 27 30 35 33 28 30 34 31 40 37 41 36 37 33 33 30 29 29
24 22 19 16 16 17 17 18 17 18 21 19 23 24 20 23 24 28 26 26 25 17 15 15 17 16 28 32 27 28 36 37 25 27 27 30 26 34 40 41 32 29 28 30 31
27 25 23 18 18 18 13 15 19 21 19 18 18 26 29 30 31 28 28 28 29 27 25 22 24 21 24 24 24 25 15 12 18 18 21 22 43 39 38 33 33 29 27 28 31